Weather History for KSDL - February, 2013

Change the Weather History Date:

Wednesday, February 13, 2013

  Actual Average Record
Temperature  
Mean Temperature 48 °F -  
Max Temperature 62 °F 65 °F 79 °F (2014)
Min Temperature 35 °F 45 °F 35 °F (2013)
Degree Days  
Heating Degree Days 16    
Moisture  
Dew Point 24 °F    
Average Humidity 40    
Maximum Humidity 72    
Minimum Humidity 19    
Precipitation  
Precipitation 0.00 in - - ()
Sea Level Pressure  
Sea Level Pressure 30.14 in    
Wind  
Wind Speed 2 mph (West)    
Max Wind Speed 5 mph    
Max Gust Speed -    
Visibility 10 miles    
Events      
Averages and records for this station are not official NWS values.
T = Trace of Precipitation, MM = Missing Value Source: NWS Daily Summary

Daily Weather History Graph

Daily Weather History Graph

Search for Another Location

Airport or City:

Trip Planner

Search our weather history database for the weather conditions in past years. The results will help you decide how hot, cold, wet, or windy it might be!

Date:

Astronomy

Feb. 13, 2013 Rise Set
Actual Time 7:13 AM MST 6:10 PM MST
Civil Twilight 6:47 AM MST 6:36 PM MST
Nautical Twilight 6:18 AM MST 7:05 PM MST
Astronomical Twilight 5:49 AM MST 7:34 PM MST
Moon 8:58 AM MST (2/13) 10:01 PM MST (2/13)
Length of Visible Light 11h 48m
Length of Day
10h 57m
Waxing Crescent, 14% of the Moon is Illuminated
Feb 13
Waxing Crescent
Feb 17
First Quarter
Feb 25
Full
Mar 4
Last Quarter
Mar 11
New

Hourly Weather History & Observations

Time (MST) Temp. Windchill Dew Point Humidity Pressure Visibility Wind Dir Wind Speed Gust Speed Precip Events Conditions
12:53 AM 42.1 °F 40.2 °F 27.0 °F 55% 30.19 in 10.0 mi NNW 3.5 mph - N/A   Clear
1:53 AM 41.0 °F - 27.0 °F 57% 30.19 in 10.0 mi Calm Calm - N/A   Clear
2:53 AM 37.9 °F - 28.0 °F 68% 30.17 in 10.0 mi Calm Calm - N/A   Clear
3:53 AM 39.0 °F - 27.0 °F 62% 30.16 in 10.0 mi Calm Calm - N/A   Clear
5:53 AM 37.0 °F - 26.1 °F 65% 30.17 in 10.0 mi Calm Calm - N/A   Clear
6:53 AM 35.1 °F - 27.0 °F 72% 30.18 in 10.0 mi Calm Calm - N/A   Clear
7:53 AM 37.9 °F 35.5 °F 27.0 °F 65% 30.19 in 10.0 mi NE 3.5 mph - N/A   Clear
8:53 AM 44.1 °F - 27.0 °F 51% 30.20 in 10.0 mi Calm Calm - N/A   Clear
9:53 AM 48.9 °F - 26.1 °F 41% 30.21 in 10.0 mi West 3.5 mph - N/A   Clear
10:53 AM 52.0 °F - 24.1 °F 34% 30.20 in 10.0 mi Calm Calm - N/A   Clear
11:53 AM 55.9 °F - 21.0 °F 26% 30.18 in 10.0 mi South 3.5 mph - N/A   Clear
12:53 PM 57.0 °F - 19.9 °F 24% 30.15 in 10.0 mi Variable 4.6 mph - N/A   Clear
1:53 PM 59.0 °F - 18.0 °F 20% 30.12 in 10.0 mi West 4.6 mph - N/A   Clear
2:53 PM 61.0 °F - 18.0 °F 19% 30.11 in 10.0 mi West 4.6 mph - N/A   Clear
3:53 PM 62.1 °F - 19.0 °F 19% 30.09 in 10.0 mi West 4.6 mph - N/A   Clear
4:53 PM 62.1 °F - 19.0 °F 19% 30.09 in 10.0 mi West 4.6 mph - N/A   Clear
5:53 PM 60.1 °F - 19.0 °F 20% 30.09 in 10.0 mi West 3.5 mph - N/A   Clear
6:53 PM 57.9 °F - 21.0 °F 24% 30.10 in 10.0 mi Calm Calm - N/A   Clear
7:53 PM 55.0 °F - 21.0 °F 27% 30.10 in 10.0 mi Calm Calm - N/A   Clear
8:53 PM 52.0 °F - 25.0 °F 35% 30.11 in 10.0 mi Calm Calm - N/A   Clear
9:53 PM 51.1 °F - 27.0 °F 39% 30.11 in 10.0 mi Calm Calm - N/A   Clear
10:53 PM 50.0 °F - 27.0 °F 41% 30.10 in 10.0 mi Calm Calm - N/A   Clear
11:53 PM 46.9 °F - 27.0 °F 46% 30.10 in 10.0 mi Calm Calm - N/A   Clear